Погода в Аридее

Греция     40°58′21″N   22°03′29″E
темп.,
°C
ветер,
м/с
пор.,
м/с
влажн.,
%
обл.,
%
осадки,
мм/ч
давл.,
гПа
погр.,
м
24 октября, вс
вс2400:00+13ссз227493 0.0 102335
03:00+11ссз568454 0.0 1023119
06:00+9ссз7978100 0.0 1024228
09:00+8ссз7972100 0.0 1026261
12:00+9ссз6763100 0.0 1027367
15:00+11ссз4454100 0.0 1027577
18:00+10с345669 0.0 1027204
21:00+8ссз225465 0.0 102967
25 октября, пн
пн2500:00+8в1266100 0.0 1030187
03:00+7юв2498100 0.3 1030452
06:00+7вюв2397100 0.7 1030229
09:00+6вюв1296100 0.9 1031208
12:00+6юв2393100 0.4 1032321
15:00+8юв2378100 0.5 1029699
18:00+7юв1377100 0.0 1029451
21:00+4с1184100 0.0 103025
26 октября, вт
вт2600:00+4с127884 0.0 102923
03:00+3ссз22790 0.0 102822
06:00+3ссз22720 0.0 102719
09:00+4с126797 0.0 102741
12:00+8юв225612 0.0 1026456
15:00+10ююв215018 0.0 1023556
18:00+8ююв1166100 0.0 102323
21:00+5ссз116511 0.0 102412
27 октября, ср
ср2700:00+5ссз11524 0.0 102413
03:00+5ссз224457 0.0 102312
06:00+4ссз223767 0.0 102314
09:00+6ссз2247100 0.0 102428
12:00+11вюв1140100 0.0 1023562
15:00+13юв1139100 0.0 1021739
18:00+9ссз2260100 0.0 102288
21:00+7ссз456399 0.0 102474
28 октября, чт
чт2800:00+6ссз45730 0.0 102578
03:00+5ссз45790 0.0 102582
06:00+4ссз46824 0.0 102588
09:00+5ссз3479100 0.0 1025129
12:00+9ююв2160100 0.0 1024744
15:00+10юв3261100 0.0 1023839
18:00+8ююв1271100 0.0 1023203
21:00+6с117839 0.0 102414